[[{"header":{"parameterUnit":"m.s-1","parameterCategory":2,"la1":30.2991,"la2":30.254,"lo1":-89.0895,"lo2":-89.0444,"dy":0.0017,"dx":0.0017,"nx":28,"ny":28,"refTime":"2023-11-05T03:00:00:Z","depth":"0","parameterNumber":2,"parameterNumberName":"U-component_of_CURRENTS"},"data":[0,0,0,0,0,0,0,0,0,0,0,0,0,0,0,0,0,0,0,0,0,0,0,0,0,0,0,0,0,0,0,0,0,0,0,0,0,0,0,0,0,0,0,0,0,0,0,0,0,0,0,0,0,0,0,0,0,0,0.1293,0.1292,0,0.1186,0.1185,0.1184,0.1129,0.1129,0.1129,0.1129,0.1031,0.1028,0.1026,0,0,0,0,0,0,0,0,0,0,0,0,0,0.1416,0.1415,0.1293,0.1292,0.1291,0.1187,0.1185,0.1184,0.1129,0.1129,0.1129,0.1129,0.1032,0.1029,0.1026,0,0,0,0,0,0,0,0,0,0,0,0,0,0.1342,0.1414,0.1294,0.125,0.1245,0.1187,0.1185,0.1183,0.1129,0.1129,0.1129,0.1129,0.1033,0.1029,0.1025,0.1006,0,0,0.1014,0.1012,0,0,0,0,0,0,0,0,0.1347,0.1338,0.1258,0.1253,0.1247,0.117,0.1192,0.1124,0.113,0.1174,0.1129,0.1129,0.1078,0.107,0.1052,0.1001,0.0997,0.1013,0.1011,0.101,0.1009,0,0,0,0,0,0,0,0.1352,0.1342,0.1252,0.1257,0.125,0.1224,0.1214,0.1179,0.1129,0.117,0.1166,0.1153,0.1075,0.1055,0.1049,0.0996,0.1014,0.101,0.1008,0.1006,0.0956,0.0957,0,0,0,0,0,0,0.1365,0.1347,0.1255,0.1249,0.1297,0.1222,0.1211,0.1196,0.1129,0.1119,0.1153,0.1151,0.1062,0.1053,0.1045,0.1073,0.101,0.1006,0.1004,0.0956,0.0957,0.0958,0,0,0,0,0,0,0.1368,0.1358,0.126,0.1295,0.128,0.1221,0.1204,0.1194,0.1182,0.1116,0.1105,0.1153,0.1061,0.1051,0.1032,0.1067,0.1004,0.1001,0.0954,0.0956,0.0957,0.1094,0,0,0,0,0,0,0.1372,0.136,0.1358,0.1296,0.1279,0.1242,0.1204,0.1192,0.1173,0.1169,0.1112,0.1102,0.1061,0.1038,0.1028,0.1061,0.0998,0.0953,0.0955,0.0957,0.1089,0.11,0.111,0,0,0,0,0,0.1377,0.1378,0.1359,0.1348,0.1277,0.1243,0.1233,0.1189,0.1174,0.1177,0.1141,0.1104,0.1042,0.1036,0.1024,0.1057,0.0952,0.0955,0.0957,0.1084,0.1098,0.111,0,0,0,0,0,0,0.1429,0.1371,0.1348,0.1331,0.1297,0.1234,0.123,0.1201,0.1173,0.1174,0.1113,0.1102,0.1096,0.1054,0.1049,0.1045,0.0992,0.0992,0.1092,0.1105,0.1116,0.1166,0.0995,0,0,0,0,0,0.144,0.1429,0.137,0.136,0.1346,0.1292,0.1273,0.1247,0.121,0.1197,0.1155,0.1117,0.1093,0.1083,0.1046,0.1046,0.1076,0.1058,0.1069,0.1079,0.111,0.1192,0.1216,0.0964,0.0964,0.0964,0,0,0.1454,0.1425,0.1415,0.1371,0.1341,0.1332,0.1281,0.1265,0.1266,0.1191,0.1186,0.1148,0.1098,0.1099,0.1094,0.1073,0.1168,0.1081,0.109,0.1117,0.1197,0.1223,0.1245,0.0966,0.0966,0.0965,0,0,0.1484,0.1456,0.1457,0.1437,0.1401,0.1372,0.1374,0.1321,0.131,0.1295,0.125,0.1247,0.1187,0.118,0.1164,0.1212,0.1217,0.1188,0.1293,0.1373,0.1396,0.1416,0.1509,0.1536,0.1201,0.1202,0.1202,0,0.1505,0.1493,0.1455,0.1456,0.1447,0.1398,0.1405,0.1387,0.1338,0.1351,0.1311,0.1286,0.1234,0.1274,0.1286,0.1242,0.1294,0.1252,0.1394,0.1414,0.1433,0.1522,0.1551,0.1208,0.1208,0.1207,0.1206,0,0.153,0.1527,0.1531,0.1517,0.151,0.1508,0.148,0.1483,0.1462,0.1449,0.1475,0.1425,0.1422,0.14,0.1355,0.1457,0.1455,0.1397,0.1375,0.1467,0.1554,0.1582,0.1218,0.1216,0.1214,0.1212,0,0,0.1554,0.1548,0.155,0.1555,0.1542,0.1534,0.1565,0.1577,0.1611,0.1591,0.1645,0.1618,0.1614,0.1597,0.1555,0.1617,0.1782,0.1577,0.1577,0.1695,0.1995,0.2034,0.2068,0.1762,0.1767,0.1771,0.2012,0,0.1582,0.1598,0.1595,0.1619,0.1621,0.1616,0.1646,0.1663,0.1673,0.1713,0.1719,0.1735,0.1683,0.1687,0.1757,0.1756,0.1858,0.1724,0.1864,0.1869,0.1915,0.2102,0.2163,0.2388,0.2039,0.2044,0.2047,0,0.1598,0.1608,0.1633,0.1664,0.1669,0.1685,0.174,0.1762,0.1827,0.1841,0.1905,0.1896,0.1987,0.1907,0.2065,0.1988,0.2026,0.2036,0.2044,0.2057,0.1961,0.223,0.245,0.2452,0.2089,0.2086,0.2083,0,0.1607,0.1636,0.1658,0.1662,0.1691,0.1721,0.1746,0.1805,0.1837,0.1932,0.1973,0.2081,0.2117,0.2209,0.2238,0.2173,0.241,0.231,0.2402,0.2404,0.2474,0.2474,0.2737,0.2466,0.2465,0.2464,0.2464,0,0.1622,0.1638,0.1662,0.1666,0.1707,0.1735,0.1794,0.1837,0.1917,0.1975,0.2042,0.2117,0.2195,0.2311,0.2343,0.2496,0.2515,0.2496,0.2498,0.2521,0.2523,0.2532,0.2428,0.2473,0.2471,0.247,0.2468,0,0.1609,0.1627,0.1645,0.1686,0.17,0.1725,0.1787,0.1834,0.192,0.2004,0.2041,0.2183,0.2354,0.2448,0.2596,0.2629,0.2719,0.2784,0.2817,0.282,0.2886,0.2783,0.282,0.277,0.2965,0.2968,0.297,0,0.1596,0.1604,0.1636,0.1644,0.1658,0.1698,0.1728,0.1813,0.1864,0.2037,0.2081,0.2281,0.2411,0.2695,0.2835,0.3009,0.2841,0.3121,0.3,0.2985,0.2871,0.2623,0.2557,0.3156,0.316,0.3163,0.3165,0,0.1566,0.1577,0.1587,0.1603,0.1626,0.166,0.1714,0.1756,0.1871,0.1968,0.2129,0.2261,0.2581,0.2827,0.3071,0.3155,0.3033,0.3187,0.3182,0.3089,0.2827,0.2747,0.2889,0.3193,0.319,0.3188,0.3186,0.3185,0.1529,0.1525,0.1536,0.1553,0.1577,0.1614,0.164,0.1723,0.1816,0.1971,0.2114,0.2332,0.2727,0.3107,0.324,0.3491,0.3214,0.3444,0.3341,0.3107,0.3003,0.3216,0.3488,0.3487,0.3486,0.3485,0.3484,0,0.1473,0.1478,0.1488,0.1505,0.1514,0.155,0.162,0.1658,0.1757,0.1956,0.2107,0.2521,0.2901,0.3248,0.366,0.3676,0.3502,0.3581,0.3288,0.3229,0.3509,0.3468,0.3735,0.3735,0.3735,0.3735,0.3735,0.3735,0.144,0.1428,0.144,0.1434,0.145,0.1467,0.1502,0.1583,0.172,0.1969,0.2206,0.2411,0.2895,0.3439,0.3774,0.3749,0.3497,0.3354,0.3222,0.3488,0.3467,0.3446,0.3394,0.3641,0.3641,0.2931,0.2926,0.2922]},{"header":{"parameterUnit":"m.s-1","parameterCategory":2,"la1":30.2991,"la2":30.254,"lo1":-89.0895,"lo2":-89.0444,"dy":0.0017,"dx":0.0017,"nx":28,"ny":28,"refTime":"2023-11-05T03:00:00:Z","depth":"0","parameterNumber":3,"parameterNumberName":"V-component_of_CURRENTS"},"data":[0,0,0,0,0,0,0,0,0,0,0,0,0,0,0,0,0,0,0,0,0,0,0,0,0,0,0,0,0,0,0,0,0,0,0,0,0,0,0,0,0,0,0,0,0,0,0,0,0,0,0,0,0,0,0,0,0,0,-0.0623,-0.0624,0,-0.0646,-0.0646,-0.0646,-0.0707,-0.0708,-0.0709,-0.071,-0.077,-0.077,-0.0771,0,0,0,0,0,0,0,0,0,0,0,0,0,-0.0649,-0.0648,-0.0623,-0.0624,-0.0624,-0.0646,-0.0646,-0.0647,-0.0707,-0.0708,-0.071,-0.0711,-0.077,-0.077,-0.0771,0,0,0,0,0,0,0,0,0,0,0,0,0,-0.0653,-0.0648,-0.0623,-0.0655,-0.0658,-0.0645,-0.0646,-0.0647,-0.0707,-0.0708,-0.071,-0.0712,-0.0769,-0.077,-0.0771,-0.0742,0,0,-0.0773,-0.0774,0,0,0,0,0,0,0,0,-0.0653,-0.0652,-0.065,-0.0653,-0.0656,-0.0674,-0.0677,-0.068,-0.0706,-0.069,-0.0711,-0.0712,-0.0738,-0.0742,-0.0745,-0.0745,-0.0748,-0.0774,-0.0774,-0.0774,-0.0775,0,0,0,0,0,0,0,-0.0652,-0.0652,-0.0634,-0.065,-0.0654,-0.0673,-0.0676,-0.0678,-0.0707,-0.0692,-0.0696,-0.0694,-0.0741,-0.0744,-0.0747,-0.0748,-0.0773,-0.0774,-0.0775,-0.0775,-0.076,-0.0759,0,0,0,0,0,0,-0.0642,-0.0651,-0.0634,-0.0635,-0.0656,-0.0671,-0.0674,-0.0668,-0.0706,-0.0713,-0.0693,-0.0697,-0.0742,-0.0746,-0.0749,-0.0729,-0.0774,-0.0775,-0.0776,-0.0761,-0.076,-0.0759,0,0,0,0,0,0,-0.0643,-0.064,-0.0633,-0.0642,-0.0643,-0.0668,-0.0661,-0.0667,-0.0672,-0.0706,-0.0715,-0.0692,-0.0743,-0.0748,-0.0755,-0.0731,-0.0775,-0.0776,-0.0762,-0.0761,-0.0759,-0.0681,0,0,0,0,0,0,-0.0643,-0.064,-0.0628,-0.0641,-0.0642,-0.0618,-0.066,-0.0667,-0.0668,-0.0673,-0.0707,-0.0715,-0.0745,-0.0753,-0.0756,-0.0733,-0.0777,-0.0763,-0.0761,-0.076,-0.0685,-0.0677,-0.0671,0,0,0,0,0,-0.0644,-0.0623,-0.0627,-0.0625,-0.0625,-0.0616,-0.0618,-0.0644,-0.0666,-0.0657,-0.0689,-0.0714,-0.0745,-0.0753,-0.0756,-0.0733,-0.0764,-0.0762,-0.076,-0.0688,-0.0679,-0.0671,0,0,0,0,0,0,-0.063,-0.0627,-0.0633,-0.0612,-0.0609,-0.0626,-0.0619,-0.0633,-0.0649,-0.0661,-0.07,-0.0708,-0.0708,-0.0728,-0.0736,-0.0725,-0.0759,-0.0757,-0.0703,-0.0695,-0.0688,-0.0635,-0.0777,0,0,0,0,0,-0.0617,-0.0603,-0.0602,-0.0586,-0.058,-0.0595,-0.0594,-0.061,-0.0626,-0.0635,-0.0657,-0.0683,-0.0698,-0.0704,-0.0721,-0.0706,-0.0722,-0.0695,-0.0688,-0.0682,-0.0641,-0.0656,-0.0646,-0.0752,-0.0752,-0.0752,0,0,-0.0606,-0.0604,-0.0595,-0.0581,-0.0584,-0.0562,-0.06,-0.0592,-0.0575,-0.0637,-0.0623,-0.0658,-0.069,-0.0685,-0.0685,-0.0699,-0.0665,-0.0679,-0.0674,-0.0636,-0.0653,-0.0643,-0.0633,-0.0751,-0.0751,-0.0751,0,0,-0.058,-0.0573,-0.0553,-0.054,-0.0534,-0.0537,-0.0529,-0.0535,-0.0539,-0.0527,-0.0574,-0.0585,-0.0605,-0.062,-0.0631,-0.0589,-0.0631,-0.0606,-0.0522,-0.0537,-0.0528,-0.052,-0.0547,-0.0542,-0.0599,-0.0599,-0.0599,0,-0.0572,-0.0538,-0.0544,-0.0518,-0.0496,-0.0519,-0.0483,-0.0483,-0.0492,-0.0476,-0.0513,-0.0526,-0.0565,-0.0544,-0.0538,-0.0569,-0.0592,-0.0553,-0.0527,-0.0519,-0.0512,-0.0541,-0.0537,-0.0595,-0.0595,-0.0596,-0.0596,0,-0.0528,-0.0495,-0.0479,-0.0449,-0.0428,-0.0401,-0.0393,-0.0377,-0.0385,-0.0383,-0.0364,-0.0413,-0.0416,-0.0439,-0.0475,-0.0442,-0.0481,-0.0521,-0.0544,-0.0496,-0.0531,-0.0528,-0.0589,-0.0591,-0.0592,-0.0593,0,0,-0.0528,-0.046,-0.0455,-0.0416,-0.0385,-0.0362,-0.0318,-0.0276,-0.024,-0.0252,-0.0205,-0.0235,-0.0259,-0.0272,-0.0325,-0.0332,-0.0327,-0.0395,-0.0398,-0.0413,-0.0368,-0.0406,-0.0407,-0.037,-0.0368,-0.0367,-0.0419,0,-0.0491,-0.0419,-0.0394,-0.0318,-0.0273,-0.0256,-0.0208,-0.0176,-0.0161,-0.0125,-0.015,-0.0142,-0.0198,-0.0212,-0.0219,-0.03,-0.031,-0.0308,-0.0417,-0.0419,-0.0453,-0.0401,-0.037,-0.0413,-0.0416,-0.0416,-0.0415,0,-0.0457,-0.0408,-0.0326,-0.0232,-0.021,-0.0171,-0.0088,-0.0049,-0.0003,0.0007,0.0027,-0.0005,-0.0005,-0.0079,-0.0141,-0.0142,-0.023,-0.0296,-0.0301,-0.0348,-0.0449,-0.0458,-0.0407,-0.0448,-0.041,-0.0411,-0.0411,0,-0.0452,-0.0357,-0.0285,-0.0255,-0.0163,-0.0117,-0.0071,-0.001,0.0032,0.0084,0.0105,0.0109,0.0084,0.0016,-0.0107,-0.013,-0.0191,-0.0255,-0.0365,-0.0371,-0.0366,-0.0373,-0.0351,-0.029,-0.029,-0.029,-0.029,0,-0.042,-0.0362,-0.0276,-0.0237,-0.0148,-0.0091,-0.0005,0.0042,0.0106,0.0157,0.0163,0.0184,0.0104,0.0054,-0.0057,-0.0184,-0.0156,-0.0318,-0.0371,-0.0342,-0.0346,-0.0401,-0.0483,-0.0292,-0.0292,-0.0291,-0.0291,0,-0.0425,-0.0369,-0.0285,-0.018,-0.0145,-0.0087,0.0017,0.0079,0.0135,0.0198,0.021,0.0232,0.0172,0.0085,-0.004,-0.014,-0.0322,-0.0317,-0.0277,-0.0323,-0.0469,-0.055,-0.0646,-0.0759,-0.0435,-0.0436,-0.0436,0,-0.0417,-0.0375,-0.0265,-0.0214,-0.0166,-0.0075,-0.0011,0.0074,0.0133,0.0215,0.0241,0.0224,0.0214,0.0056,-0.0102,-0.0264,-0.0376,-0.0361,-0.0392,-0.0435,-0.0566,-0.0634,-0.0729,-0.037,-0.037,-0.037,-0.037,0,-0.0402,-0.0373,-0.0306,-0.021,-0.0135,-0.0044,0.0049,0.0096,0.0189,0.0242,0.0294,0.0299,0.0169,0.0062,-0.0135,-0.0267,-0.0431,-0.0374,-0.0415,-0.0491,-0.0565,-0.0713,-0.0392,-0.0372,-0.0372,-0.0371,-0.0371,-0.0371,-0.0404,-0.0359,-0.0279,-0.0189,-0.0107,-0.001,0.0061,0.0146,0.0233,0.0333,0.0327,0.0378,0.0258,0.0004,-0.0197,-0.0426,-0.052,-0.048,-0.0572,-0.0632,-0.0737,-0.0422,-0.0469,-0.0469,-0.0469,-0.047,-0.047,0,-0.0395,-0.0333,-0.0252,-0.014,-0.006,-0.0012,0.0108,0.0179,0.0272,0.0368,0.0419,0.0471,0.0283,0.0069,-0.0212,-0.0481,-0.0668,-0.0636,-0.0687,-0.078,-0.0463,-0.045,-0.0496,-0.0496,-0.0496,-0.0496,-0.0496,-0.0496,-0.0379,-0.0306,-0.0256,-0.0121,-0.0043,0.0067,0.0135,0.0233,0.0326,0.0486,0.0597,0.0679,0.0769,0.0154,-0.0283,-0.0507,-0.078,-0.0876,-0.104,-0.0745,-0.0735,-0.0726,-0.0725,-0.0828,-0.0829,-0.1298,-0.1303,-0.1306]}],[{"header":{"parameterUnit":"m.s-1","parameterCategory":2,"la1":30.2991,"la2":30.254,"lo1":-89.0895,"lo2":-89.0444,"dy":0.0017,"dx":0.0017,"nx":28,"ny":28,"refTime":"2023-11-05T03:00:00:Z","depth":"2","parameterNumber":2,"parameterNumberName":"U-component_of_CURRENTS"},"data":[0,0,0,0,0,0,0,0,0,0,0,0,0,0,0,0,0,0,0,0,0,0,0,0,0,0,0,0,0,0,0,0,0,0,0,0,0,0,0,0,0,0,0,0,0,0,0,0,0,0,0,0,0,0,0,0,0,0,0.1288,0.1289,0,0.1386,0.1387,0.1388,0.1426,0.1426,0.1426,0.1425,0.1481,0.1483,0.1484,0,0,0,0,0,0,0,0,0,0,0,0,0,0.1174,0.1176,0.1288,0.1289,0.129,0.1386,0.1387,0.1388,0.1426,0.1426,0.1426,0.1425,0.148,0.1482,0.1484,0,0,0,0,0,0,0,0,0,0,0,0,0,0.1242,0.1176,0.1288,0.1321,0.1325,0.1385,0.1387,0.1389,0.1426,0.1426,0.1425,0.1425,0.148,0.1482,0.1485,0.1507,0,0,0.1493,0.1494,0,0,0,0,0,0,0,0,0.1238,0.1246,0.1315,0.1319,0.1323,0.1394,0.1368,0.1426,0.1426,0.1387,0.1425,0.1425,0.1448,0.1454,0.1473,0.151,0.1512,0.1493,0.1494,0.1495,0.1496,0,0,0,0,0,0,0,0.1234,0.1243,0.1326,0.1316,0.1321,0.1345,0.1354,0.1379,0.1417,0.1391,0.1394,0.1406,0.145,0.147,0.1474,0.1513,0.1493,0.1495,0.1497,0.1498,0.1625,0.1627,0,0,0,0,0,0,0.1221,0.1238,0.1323,0.1329,0.128,0.1347,0.1357,0.1371,0.1418,0.1426,0.1406,0.1407,0.1466,0.1471,0.1476,0.1534,0.1495,0.1498,0.1499,0.1623,0.1626,0.1628,0,0,0,0,0,0,0.1218,0.1228,0.1319,0.1286,0.1299,0.1349,0.1365,0.1373,0.1402,0.143,0.1437,0.1426,0.1466,0.1473,0.152,0.1535,0.1499,0.1501,0.1621,0.1624,0.1627,0.1632,0,0,0,0,0,0,0.1215,0.1226,0.1241,0.1285,0.1301,0.1359,0.1366,0.1375,0.1409,0.1412,0.145,0.1454,0.1466,0.1516,0.1523,0.1538,0.1503,0.1619,0.1623,0.1626,0.1629,0.1635,0.1639,0,0,0,0,0,0.121,0.1223,0.1241,0.1251,0.1316,0.136,0.1371,0.1404,0.141,0.1428,0.1462,0.1453,0.1543,0.152,0.1527,0.1544,0.1617,0.1621,0.1626,0.1627,0.1634,0.1639,0,0,0,0,0,0,0.118,0.123,0.1249,0.1277,0.132,0.1367,0.1386,0.141,0.1452,0.1454,0.1478,0.1486,0.1534,0.1546,0.152,0.1595,0.1578,0.1584,0.1578,0.1584,0.1588,0.1572,0.1505,0,0,0,0,0,0.1181,0.1202,0.1256,0.1278,0.1298,0.1345,0.137,0.1394,0.1433,0.1452,0.148,0.1516,0.1557,0.1575,0.1609,0.1647,0.1661,0.1665,0.167,0.1674,0.1668,0.1709,0.1716,0.1642,0.1641,0.1641,0,0,0.1171,0.1205,0.1215,0.1273,0.1306,0.1334,0.1359,0.1395,0.1421,0.145,0.1493,0.1533,0.1574,0.1622,0.1643,0.1631,0.1707,0.1679,0.1681,0.1674,0.1714,0.1721,0.1727,0.1644,0.1644,0.1643,0,0,0.1155,0.1197,0.1206,0.1244,0.1298,0.1331,0.1343,0.1398,0.1427,0.1479,0.1511,0.1561,0.1617,0.1652,0.1676,0.1729,0.1734,0.1745,0.175,0.179,0.1796,0.1801,0.184,0.1848,0.1743,0.1744,0.1744,0,0.114,0.117,0.1216,0.1239,0.127,0.1327,0.1347,0.1388,0.1452,0.1483,0.149,0.1601,0.1629,0.1696,0.1718,0.1736,0.1763,0.1719,0.1794,0.1799,0.1804,0.1842,0.1851,0.1744,0.1744,0.1744,0.1744,0,0.1129,0.1163,0.1173,0.1221,0.1259,0.129,0.1351,0.1393,0.1436,0.148,0.156,0.1616,0.1682,0.1703,0.1726,0.1787,0.1797,0.1795,0.1769,0.1811,0.185,0.1859,0.1745,0.1745,0.1745,0.1745,0,0,0.1069,0.1148,0.1155,0.1183,0.1258,0.1287,0.1337,0.1407,0.1446,0.1514,0.1573,0.1653,0.1695,0.1727,0.1769,0.1801,0.1864,0.1814,0.1816,0.1835,0.1961,0.1882,0.1885,0.1877,0.1878,0.188,0.1977,0,0.1049,0.1091,0.1136,0.1178,0.1209,0.1281,0.1322,0.1392,0.1461,0.1531,0.1606,0.1678,0.1702,0.1746,0.1786,0.1853,0.1888,0.1838,0.1932,0.1934,0.1845,0.1892,0.1649,0.1707,0.1986,0.1987,0.1988,0,0.1025,0.1063,0.1102,0.1178,0.1195,0.1226,0.1319,0.1367,0.1476,0.1532,0.1621,0.1686,0.1778,0.1777,0.19,0.1872,0.1916,0.1951,0.1956,0.1881,0.1872,0.1711,0.1713,0.2004,0.2003,0.2002,0.2001,0,0.0976,0.1042,0.1077,0.1103,0.1188,0.122,0.1271,0.137,0.1435,0.1546,0.1608,0.1713,0.1794,0.1857,0.1952,0.1934,0.2069,0.2051,0.202,0.2015,0.1823,0.1799,0.2117,0.2117,0.2116,0.2116,0.2116,0,0.095,0.0978,0.1059,0.1079,0.1126,0.119,0.126,0.1324,0.1436,0.1518,0.1613,0.1699,0.1818,0.1917,0.1968,0.2033,0.2091,0.2025,0.2034,0.1821,0.1796,0.206,0.2052,0.212,0.2119,0.2118,0.2118,0,0.0904,0.0954,0.1001,0.1082,0.1109,0.1148,0.1266,0.1316,0.1419,0.1533,0.1575,0.1726,0.1847,0.195,0.2071,0.2059,0.2117,0.2121,0.1864,0.1838,0.2031,0.2022,0.2084,0.2082,0.208,0.2079,0.2078,0,0.089,0.0908,0.0998,0.1027,0.1068,0.1142,0.1191,0.1305,0.1367,0.1547,0.1591,0.1749,0.1825,0.1968,0.1942,0.1988,0.2127,0.1837,0.1739,0.2024,0.2028,0.2022,0.2016,0.1503,0.1497,0.1492,0.1489,0,0.0863,0.0897,0.0937,0.0999,0.1051,0.1118,0.1196,0.1241,0.1375,0.1459,0.1576,0.1644,0.1732,0.1673,0.1728,0.1717,0.18,0.1741,0.2119,0.1541,0.1482,0.1483,0.1496,0.1446,0.1451,0.1454,0.1456,0.1458,0.0846,0.0868,0.0921,0.0977,0.1029,0.1076,0.1107,0.1183,0.1261,0.1343,0.145,0.1474,0.1459,0.139,0.1405,0.1421,0.1513,0.1478,0.149,0.1509,0.1416,0.1356,0.128,0.1283,0.1286,0.1289,0.1291,0,0.083,0.0859,0.0897,0.0956,0.0981,0.1039,0.1095,0.1091,0.1136,0.12,0.1248,0.1078,0.1027,0.1122,0.102,0.1011,0.097,0.1054,0.0996,0.1033,0.1067,0.0953,0.0695,0.0695,0.0695,0.0695,0,0,0.0824,0.0847,0.0865,0.0896,0.0936,0.0955,0.0973,0.0957,0.097,0.0932,0.0921,0.0906,0.0975,0.0795,0.0766,0.0761,0.0904,0.0721,0.1167,0.1128,0.1163,0.1247,0.1104,0,0,0,0,0]},{"header":{"parameterUnit":"m.s-1","parameterCategory":2,"la1":30.2991,"la2":30.254,"lo1":-89.0895,"lo2":-89.0444,"dy":0.0017,"dx":0.0017,"nx":28,"ny":28,"refTime":"2023-11-05T03:00:00:Z","depth":"2","parameterNumber":3,"parameterNumberName":"V-component_of_CURRENTS"},"data":[0,0,0,0,0,0,0,0,0,0,0,0,0,0,0,0,0,0,0,0,0,0,0,0,0,0,0,0,0,0,0,0,0,0,0,0,0,0,0,0,0,0,0,0,0,0,0,0,0,0,0,0,0,0,0,0,0,0,-0.0045,-0.0045,0,-0.0084,-0.0084,-0.0085,-0.0126,-0.0127,-0.0127,-0.0128,-0.0225,-0.0227,-0.0229,0,0,0,0,0,0,0,0,0,0,0,0,0,0.0008,0.0007,-0.0045,-0.0045,-0.0046,-0.0084,-0.0084,-0.0085,-0.0126,-0.0127,-0.0128,-0.0128,-0.0225,-0.0227,-0.0229,0,0,0,0,0,0,0,0,0,0,0,0,0,-0.0022,0.0007,-0.0045,-0.0071,-0.0074,-0.0084,-0.0084,-0.0085,-0.0126,-0.0127,-0.0128,-0.0129,-0.0224,-0.0227,-0.023,-0.0231,0,0,-0.0239,-0.024,0,0,0,0,0,0,0,0,-0.002,-0.0023,-0.0067,-0.0069,-0.0072,-0.0101,-0.0102,-0.0137,-0.0126,-0.0106,-0.0128,-0.0129,-0.0189,-0.0195,-0.0199,-0.0235,-0.024,-0.0239,-0.0241,-0.0243,-0.0243,0,0,0,0,0,0,0,-0.0018,-0.0022,-0.006,-0.0067,-0.0071,-0.0076,-0.0081,-0.0108,-0.0143,-0.0108,-0.0111,-0.0115,-0.0191,-0.0196,-0.0202,-0.0241,-0.0239,-0.0242,-0.0244,-0.0245,-0.0292,-0.0291,0,0,0,0,0,0,-0.0013,-0.002,-0.0059,-0.0061,-0.0048,-0.0076,-0.0082,-0.0091,-0.0141,-0.0149,-0.0114,-0.0117,-0.019,-0.0198,-0.0205,-0.0226,-0.0243,-0.0245,-0.0247,-0.0293,-0.0292,-0.0291,0,0,0,0,0,0,-0.0012,-0.0016,-0.0057,-0.0041,-0.0047,-0.0077,-0.0086,-0.0091,-0.0094,-0.0146,-0.0155,-0.0111,-0.0191,-0.0201,-0.0223,-0.0229,-0.0247,-0.025,-0.0293,-0.0292,-0.0292,-0.0257,0,0,0,0,0,0,-0.001,-0.0016,-0.0015,-0.0041,-0.0048,-0.0062,-0.0085,-0.0091,-0.0095,-0.0099,-0.0146,-0.0156,-0.0193,-0.0218,-0.0226,-0.0234,-0.0252,-0.0294,-0.0293,-0.0292,-0.0258,-0.0255,-0.0251,0,0,0,0,0,-0.0008,-0.0011,-0.0015,-0.0019,-0.0048,-0.0061,-0.0065,-0.0088,-0.0094,-0.0093,-0.0121,-0.0154,-0.0217,-0.0219,-0.0229,-0.0238,-0.0295,-0.0293,-0.0292,-0.026,-0.0255,-0.0251,0,0,0,0,0,0,0.0011,-0.0016,-0.0021,-0.0031,-0.0041,-0.0068,-0.007,-0.0078,-0.0097,-0.0101,-0.0145,-0.0157,-0.018,-0.0205,-0.0207,-0.0246,-0.0262,-0.0262,-0.0234,-0.023,-0.0227,-0.0226,-0.0254,0,0,0,0,0,0.0018,0.0008,-0.0011,-0.0018,-0.0021,-0.0039,-0.0044,-0.0057,-0.0079,-0.0087,-0.0117,-0.0149,-0.0181,-0.0201,-0.0229,-0.0248,-0.0277,-0.0259,-0.0255,-0.0252,-0.0256,-0.0301,-0.0303,-0.0287,-0.0287,-0.0287,0,0,0.0023,0.0009,0.0003,-0.0014,-0.0024,-0.0032,-0.0045,-0.0051,-0.0061,-0.0095,-0.0114,-0.0136,-0.018,-0.0205,-0.0218,-0.0229,-0.0268,-0.0251,-0.0248,-0.0254,-0.03,-0.0302,-0.0303,-0.0286,-0.0286,-0.0286,0,0,0.0027,0.0018,0.0013,0.0005,-0.0006,-0.0018,-0.0015,-0.0031,-0.0043,-0.0055,-0.0086,-0.0106,-0.0147,-0.0184,-0.0209,-0.0199,-0.0244,-0.0205,-0.0196,-0.0238,-0.0241,-0.0243,-0.0268,-0.0273,-0.0208,-0.0208,-0.0208,0,0.0035,0.0029,0.0012,0.0006,0.0006,-0.001,-0.0007,-0.0026,-0.0046,-0.0049,-0.0058,-0.0107,-0.0143,-0.0183,-0.0183,-0.0194,-0.0218,-0.0211,-0.0235,-0.0238,-0.0241,-0.0267,-0.0272,-0.0207,-0.0207,-0.0207,-0.0207,0,0.0033,0.0034,0.0032,0.0018,0.0014,0.0017,-0.0006,-0.0009,-0.0015,-0.0031,-0.0051,-0.0092,-0.012,-0.0137,-0.0163,-0.0198,-0.0206,-0.0223,-0.0249,-0.0241,-0.0267,-0.0274,-0.0204,-0.0205,-0.0205,-0.0206,0,0,0.0044,0.0035,0.0036,0.005,0.0029,0.0034,0.0013,0.0004,0.0013,-0.0023,-0.0019,-0.0081,-0.0087,-0.0115,-0.0146,-0.0191,-0.0229,-0.0214,-0.0217,-0.0242,-0.0312,-0.0297,-0.0303,-0.0252,-0.0253,-0.0254,-0.0317,0,0.0057,0.0068,0.0048,0.0067,0.0083,0.0062,0.0054,0.004,0.003,0.0027,-0.0028,-0.0035,-0.0086,-0.0081,-0.0141,-0.0197,-0.0247,-0.0209,-0.0313,-0.0316,-0.0308,-0.0311,-0.0289,-0.0342,-0.0324,-0.0326,-0.0326,0,0.0069,0.0082,0.0104,0.0127,0.0131,0.0129,0.0144,0.0135,0.0105,0.0102,0.0067,0.0035,-0.0028,-0.0064,-0.0191,-0.0162,-0.0237,-0.0294,-0.0298,-0.0304,-0.0314,-0.0349,-0.0355,-0.0338,-0.0337,-0.0336,-0.0336,0,0.0118,0.0128,0.0158,0.0161,0.0168,0.0176,0.0179,0.0163,0.0184,0.0155,0.0177,0.0085,0.0075,-0.0053,-0.0166,-0.0179,-0.0299,-0.0331,-0.0395,-0.0394,-0.0406,-0.0404,-0.0434,-0.0433,-0.0433,-0.0433,-0.0433,0,0.0156,0.0184,0.0188,0.0207,0.0258,0.0235,0.0283,0.0273,0.0276,0.0316,0.0227,0.0243,0.0078,-0.0005,-0.0144,-0.0277,-0.0286,-0.0396,-0.0415,-0.039,-0.0385,-0.041,-0.0406,-0.0435,-0.0435,-0.0435,-0.0434,0,0.0216,0.021,0.0258,0.0275,0.0285,0.0326,0.0365,0.0404,0.0391,0.044,0.0441,0.0371,0.0263,0.0092,-0.0089,-0.0214,-0.0363,-0.0412,-0.0358,-0.037,-0.0439,-0.0433,-0.0502,-0.0502,-0.0502,-0.0502,-0.0502,0,0.0252,0.0278,0.032,0.0353,0.0364,0.0416,0.0458,0.0467,0.0509,0.0525,0.0556,0.0479,0.0421,0.0161,-0.0062,-0.0297,-0.034,-0.0421,-0.0455,-0.0438,-0.0449,-0.0443,-0.0436,-0.0455,-0.0454,-0.0454,-0.0454,0,0.033,0.0338,0.0373,0.044,0.0491,0.0562,0.0613,0.0665,0.0684,0.0713,0.0738,0.0691,0.0465,0.0222,-0.0082,-0.0228,-0.0386,-0.0422,-0.0429,-0.043,-0.0396,-0.0406,-0.0401,-0.0452,-0.0452,-0.0452,-0.0452,-0.0452,0.0389,0.0431,0.0468,0.0536,0.0601,0.0686,0.0756,0.0812,0.0885,0.0897,0.0837,0.0716,0.044,0.0016,-0.0168,-0.0337,-0.0358,-0.0465,-0.0466,-0.0466,-0.0439,-0.0406,-0.0457,-0.0458,-0.0458,-0.0458,-0.0458,0,0.0458,0.0493,0.056,0.0643,0.0729,0.0746,0.085,0.0909,0.1003,0.094,0.0905,0.0533,0.0272,0.0018,-0.0231,-0.0406,-0.0406,-0.045,-0.0438,-0.044,-0.0441,-0.0412,-0.0424,-0.0424,-0.0425,-0.0425,0,0,0.0497,0.0565,0.0596,0.074,0.08,0.0928,0.0994,0.1066,0.1049,0.0927,0.0778,0.0554,0.0246,0.002,-0.0186,-0.0279,-0.0303,-0.0286,-0.0298,-0.0257,-0.0256,-0.044,-0.0396,0,0,0,0,0]}],[{"header":{"parameterUnit":"m.s-1","parameterCategory":2,"la1":30.2991,"la2":30.254,"lo1":-89.0895,"lo2":-89.0444,"dy":0.0017,"dx":0.0017,"nx":28,"ny":28,"refTime":"2023-11-05T03:00:00:Z","depth":"4","parameterNumber":2,"parameterNumberName":"U-component_of_CURRENTS"},"data":[0,0,0,0,0,0,0,0,0,0,0,0,0,0,0,0,0,0,0,0,0,0,0,0,0,0,0,0,0,0,0,0,0,0,0,0,0,0,0,0,0,0,0,0,0,0,0,0,0,0,0,0,0,0,0,0,0,0,0.0063,0.0063,0,0.0061,0.0061,0.0061,0.0104,0.0105,0.0106,0.0107,0.0127,0.0126,0.0126,0,0,0,0,0,0,0,0,0,0,0,0,0,0.0063,0.0063,0.0063,0.0063,0.0063,0.0061,0.0061,0.0061,0.0103,0.0105,0.0107,0.0108,0.0127,0.0127,0.0126,0,0,0,0,0,0,0,0,0,0,0,0,0,0.0061,0.0063,0.0063,0.0086,0.0088,0.0061,0.0061,0.0061,0.0103,0.0105,0.0107,0.0109,0.0128,0.0127,0.0126,0.008,0,0,0.0122,0.0122,0,0,0,0,0,0,0,0,0.0061,0.0061,0.0082,0.0084,0.0086,0.0086,0.0069,0.0069,0.0103,0.0095,0.0107,0.011,0.0115,0.0115,0.0108,0.0081,0.0082,0.0122,0.0122,0.0121,0.0121,0,0,0,0,0,0,0,0.0061,0.0061,0.006,0.0082,0.0085,0.0082,0.0084,0.0068,0.0093,0.0096,0.01,0.0102,0.0117,0.0109,0.0109,0.0082,0.0122,0.0121,0.0121,0.012,0.0076,0.0076,0,0,0,0,0,0,0.0065,0.0061,0.0061,0.0061,0.008,0.0081,0.0083,0.0083,0.0093,0.0097,0.01,0.0104,0.0109,0.011,0.0109,0.012,0.0121,0.012,0.012,0.0077,0.0076,0.0076,0,0,0,0,0,0,0.0065,0.0065,0.0061,0.0062,0.0062,0.008,0.0078,0.0082,0.0104,0.0096,0.0101,0.0122,0.0111,0.0111,0.0111,0.0119,0.012,0.0119,0.0077,0.0077,0.0076,0.01,0,0,0,0,0,0,0.0065,0.0064,0.0067,0.0063,0.0062,0.0058,0.0077,0.008,0.0101,0.0106,0.0116,0.0118,0.0112,0.0113,0.011,0.0118,0.0118,0.0078,0.0077,0.0076,0.01,0.01,0.0101,0,0,0,0,0,0.0065,0.0058,0.0067,0.0067,0.0065,0.0058,0.0058,0.0075,0.01,0.0104,0.0111,0.0119,0.0105,0.0111,0.0108,0.0116,0.0079,0.0077,0.0076,0.01,0.01,0.0101,0,0,0,0,0,0,0.0056,0.0061,0.0072,0.0067,0.0071,0.0067,0.0069,0.0086,0.0093,0.0106,0.0109,0.011,0.011,0.0104,0.0111,0.0098,0.0093,0.0092,0.0113,0.0113,0.0113,0.0123,0.0117,0,0,0,0,0,0.0055,0.0053,0.0059,0.0055,0.006,0.007,0.0073,0.0087,0.0091,0.0099,0.0108,0.0108,0.0094,0.01,0.0084,0.0078,0.0078,0.0081,0.0081,0.0081,0.0085,0.0076,0.0077,0.0072,0.0072,0.0072,0,0,0.0047,0.0052,0.005,0.0054,0.0058,0.0061,0.0077,0.0086,0.0091,0.0096,0.0111,0.0106,0.009,0.0082,0.0082,0.0086,0.0085,0.008,0.008,0.0084,0.0075,0.0076,0.0076,0.0071,0.0071,0.0071,0,0,0.0035,0.0041,0.0042,0.0047,0.006,0.0062,0.0073,0.0086,0.0097,0.0101,0.0103,0.0104,0.0098,0.0084,0.0075,0.0064,0.008,0.0069,0.0089,0.008,0.0081,0.0081,0.0098,0.01,0.0078,0.0078,0.0078,0,0.0032,0.0035,0.0039,0.0046,0.0053,0.0068,0.0077,0.0076,0.009,0.0098,0.0112,0.0102,0.0092,0.0076,0.0079,0.0066,0.0079,0.0093,0.0082,0.0083,0.0083,0.01,0.0102,0.0079,0.0079,0.0079,0.0079,0,0.0025,0.0032,0.0032,0.0047,0.0051,0.0058,0.0064,0.0076,0.0098,0.0104,0.0109,0.0093,0.01,0.0089,0.0084,0.0082,0.0097,0.0079,0.0087,0.0085,0.0103,0.0104,0.0081,0.008,0.008,0.008,0,0,0.0008,0.0026,0.0028,0.0044,0.0058,0.0062,0.0066,0.0076,0.0094,0.0101,0.012,0.0095,0.0117,0.0107,0.0102,0.0093,0.0109,0.0103,0.0102,0.013,0.0122,0.0134,0.0137,0.0102,0.0102,0.0101,0.014,0,0.0008,0.0021,0.0029,0.0044,0.0056,0.0071,0.0075,0.0086,0.01,0.0119,0.0107,0.0123,0.0114,0.0138,0.0124,0.0108,0.0112,0.0102,0.011,0.011,0.0129,0.0138,0.0101,0.0141,0.0141,0.0142,0.0142,0,0.0004,0.0016,0.0032,0.006,0.0068,0.0082,0.0108,0.0116,0.013,0.0148,0.0164,0.017,0.0171,0.0161,0.0146,0.015,0.0148,0.0129,0.013,0.0133,0.0124,0.0137,0.0144,0.0144,0.0144,0.0144,0.0144,0,-0.0005,0.0019,0.0035,0.0044,0.0072,0.0093,0.0116,0.0135,0.0148,0.0187,0.0209,0.0209,0.0225,0.0207,0.0187,0.0184,0.0163,0.0148,0.0154,0.0156,0.0124,0.0123,0.0139,0.0139,0.0139,0.0139,0.0139,0,-0.0005,0.0007,0.0041,0.0052,0.0082,0.0109,0.0143,0.0167,0.0198,0.0206,0.0242,0.0232,0.0239,0.0227,0.0204,0.0191,0.0184,0.0166,0.0164,0.0135,0.0134,0.0127,0.0125,0.014,0.014,0.014,0.0139,0,-0.0016,0.0002,0.0022,0.0062,0.0081,0.0109,0.0164,0.0181,0.0227,0.0241,0.0263,0.0269,0.0258,0.0255,0.0225,0.0222,0.0196,0.0191,0.0185,0.018,0.0198,0.0197,0.022,0.0221,0.0221,0.0222,0.0222,0,-0.0019,-0.001,0.0027,0.0046,0.0072,0.0119,0.0143,0.0193,0.0203,0.023,0.022,0.0243,0.024,0.023,0.0206,0.0209,0.0194,0.0223,0.0193,0.0209,0.0205,0.0203,0.0201,0.0223,0.0223,0.0223,0.0223,0,-0.0026,-0.0016,-0.0,0.0039,0.0073,0.01,0.0141,0.0155,0.0192,0.0218,0.0215,0.0233,0.0221,0.0211,0.0241,0.0213,0.0227,0.0229,0.0227,0.0199,0.0213,0.0208,0.0205,0.0225,0.0225,0.0225,0.0225,0,-0.0035,-0.0027,-0.0004,0.0033,0.0065,0.0091,0.0114,0.0138,0.0164,0.0203,0.0172,0.0186,0.0191,0.0208,0.0192,0.0221,0.0216,0.0238,0.0236,0.0233,0.0218,0.0237,0.0262,0,0,0,0,0,-0.0039,-0.003,-0.0006,0.0034,0.0062,0.0086,0.0109,0.0125,0.0147,0.0156,0.0186,0.0172,0.0198,0.0177,0.021,0.0177,0.0206,0.0215,0.0226,0.0236,0.0234,0.0214,0,0,0,0,0,0,-0.0042,-0.0027,-0.0013,0.0029,0.0058,0.0088,0.0106,0.0118,0.0129,0.0151,0.0153,0.0186,0.0188,0.0182,0.0209,0.0212,0.0228,0.0224,0.0225,0.0238,0.0236,0.0234,0.0212,0,0,0,0,0]},{"header":{"parameterUnit":"m.s-1","parameterCategory":2,"la1":30.2991,"la2":30.254,"lo1":-89.0895,"lo2":-89.0444,"dy":0.0017,"dx":0.0017,"nx":28,"ny":28,"refTime":"2023-11-05T03:00:00:Z","depth":"4","parameterNumber":3,"parameterNumberName":"V-component_of_CURRENTS"},"data":[0,0,0,0,0,0,0,0,0,0,0,0,0,0,0,0,0,0,0,0,0,0,0,0,0,0,0,0,0,0,0,0,0,0,0,0,0,0,0,0,0,0,0,0,0,0,0,0,0,0,0,0,0,0,0,0,0,0,0.006,0.006,0,0.0014,0.0014,0.0013,0.0008,0.0008,0.0009,0.0009,-0.0071,-0.0074,-0.0077,0,0,0,0,0,0,0,0,0,0,0,0,0,0.01,0.0099,0.006,0.006,0.0059,0.0015,0.0014,0.0013,0.0008,0.0008,0.0009,0.001,-0.007,-0.0074,-0.0077,0,0,0,0,0,0,0,0,0,0,0,0,0,0.007,0.0099,0.006,0.0052,0.0051,0.0015,0.0014,0.0013,0.0008,0.0008,0.0009,0.001,-0.0069,-0.0073,-0.0077,-0.0118,0,0,-0.0089,-0.0091,0,0,0,0,0,0,0,0,0.0072,0.0069,0.0054,0.0052,0.0051,0.0019,-0.0002,-0.0032,0.0007,0.0023,0.0009,0.001,-0.0045,-0.0051,-0.0062,-0.0122,-0.0125,-0.009,-0.0092,-0.0094,-0.0095,0,0,0,0,0,0,0,0.0074,0.007,0.0041,0.0053,0.0052,0.0036,0.0033,-0.0008,-0.0016,0.0022,0.0021,0.0018,-0.0045,-0.0058,-0.0064,-0.0126,-0.009,-0.0093,-0.0096,-0.0097,-0.0269,-0.0271,0,0,0,0,0,0,0.0083,0.0073,0.0043,0.004,0.0065,0.0035,0.0031,0.0027,-0.0015,-0.002,0.0017,0.0018,-0.0051,-0.0059,-0.0067,-0.0137,-0.0094,-0.0098,-0.01,-0.0267,-0.0269,-0.0272,0,0,0,0,0,0,0.0084,0.0081,0.0045,0.0056,0.005,0.0033,0.0029,0.0026,-0.0002,-0.0018,-0.0024,-0.0009,-0.0051,-0.0061,-0.0125,-0.0139,-0.0099,-0.0103,-0.0264,-0.0268,-0.0271,-0.0266,0,0,0,0,0,0,0.0085,0.0081,0.0074,0.0057,0.005,0.0024,0.0028,0.0025,-0.0004,-0.0004,-0.0042,-0.0048,-0.0051,-0.0119,-0.0129,-0.0144,-0.0106,-0.0261,-0.0266,-0.0269,-0.0263,-0.0268,-0.0273,0,0,0,0,0,0.0087,0.0086,0.0074,0.007,0.0043,0.0024,0.0018,0.0008,-0.0006,-0.0015,-0.0057,-0.0047,-0.0151,-0.0125,-0.0136,-0.0152,-0.0259,-0.0264,-0.0269,-0.0261,-0.0267,-0.0273,0,0,0,0,0,0,0.0096,0.0084,0.0071,0.0065,0.0042,0.0023,0.0012,-0.0008,-0.005,-0.0061,-0.0081,-0.009,-0.0147,-0.0166,-0.0136,-0.0218,-0.0202,-0.021,-0.0192,-0.0199,-0.0204,-0.0177,-0.0109,0,0,0,0,0,0.0093,0.0091,0.0069,0.006,0.0048,0.0019,0.0004,-0.0011,-0.0045,-0.0062,-0.0096,-0.0139,-0.0176,-0.02,-0.0235,-0.0289,-0.0282,-0.0309,-0.0313,-0.0317,-0.0307,-0.0325,-0.0329,-0.0288,-0.0288,-0.0288,0,0,0.0095,0.0086,0.0084,0.0061,0.0041,0.0031,0.0012,-0.0017,-0.0032,-0.0068,-0.0116,-0.0161,-0.0197,-0.0246,-0.0273,-0.0263,-0.0327,-0.0323,-0.0326,-0.0313,-0.033,-0.0333,-0.0336,-0.0291,-0.029,-0.029,0,0,0.0107,0.0084,0.009,0.0072,0.004,0.0022,0.0008,-0.0035,-0.0059,-0.0117,-0.0144,-0.0202,-0.0266,-0.0288,-0.0306,-0.0368,-0.0353,-0.039,-0.039,-0.0408,-0.041,-0.0412,-0.0402,-0.0403,-0.0391,-0.0391,-0.0391,0,0.0107,0.0105,0.0085,0.0083,0.0064,0.0018,0.0006,-0.0019,-0.0082,-0.0117,-0.013,-0.0244,-0.0275,-0.0326,-0.0345,-0.0373,-0.0376,-0.0357,-0.041,-0.0412,-0.0414,-0.0402,-0.0403,-0.0391,-0.0391,-0.0391,-0.0391,0,0.0124,0.0117,0.0113,0.0099,0.0077,0.0052,0.0017,-0.0027,-0.0077,-0.0112,-0.0195,-0.025,-0.0315,-0.0339,-0.0358,-0.0402,-0.0396,-0.0409,-0.0381,-0.0416,-0.0403,-0.0404,-0.0392,-0.0392,-0.0392,-0.0392,0,0,0.0132,0.0128,0.0125,0.0109,0.0073,0.005,0.0021,-0.0032,-0.0072,-0.0137,-0.019,-0.0263,-0.0313,-0.0339,-0.0383,-0.04,-0.0417,-0.0414,-0.0414,-0.0377,-0.044,-0.0419,-0.0418,-0.0442,-0.0442,-0.0443,-0.0421,0,0.0141,0.0143,0.0137,0.0115,0.0098,0.0052,0.0027,-0.0028,-0.0087,-0.0149,-0.0212,-0.0277,-0.0305,-0.0353,-0.0376,-0.0417,-0.0422,-0.042,-0.0433,-0.0433,-0.0389,-0.042,-0.0444,-0.0421,-0.0422,-0.0422,-0.0422,0,0.0147,0.0143,0.0137,0.0096,0.0084,0.007,-0.0011,-0.0039,-0.0115,-0.0164,-0.0233,-0.0286,-0.0342,-0.0357,-0.0407,-0.0409,-0.0421,-0.0436,-0.0435,-0.0415,-0.0414,-0.0385,-0.0423,-0.0423,-0.0423,-0.0423,-0.0423,0,0.0136,0.0129,0.0117,0.0107,0.0072,0.0047,0.0015,-0.0054,-0.0093,-0.0176,-0.0214,-0.029,-0.0331,-0.0365,-0.0401,-0.0413,-0.0432,-0.0451,-0.0432,-0.0429,-0.0451,-0.045,-0.0465,-0.0465,-0.0465,-0.0465,-0.0465,0,0.0126,0.0112,0.0113,0.0102,0.0066,0.004,-0.0012,-0.0057,-0.0114,-0.016,-0.0224,-0.0266,-0.0337,-0.0364,-0.0392,-0.0409,-0.0424,-0.0426,-0.0427,-0.0452,-0.045,-0.0451,-0.0449,-0.0464,-0.0464,-0.0464,-0.0464,0,0.0105,0.0113,0.0095,0.0073,0.0063,0.0032,-0.0013,-0.0054,-0.0098,-0.0153,-0.0177,-0.0248,-0.0286,-0.0326,-0.0372,-0.039,-0.0411,-0.0405,-0.0402,-0.0405,-0.0395,-0.0394,-0.0392,-0.0391,-0.039,-0.039,-0.0389,0,0.0093,0.0089,0.0079,0.0066,0.0057,0.002,-0.0009,-0.0052,-0.0088,-0.0142,-0.0169,-0.0211,-0.0258,-0.0288,-0.0336,-0.0366,-0.0372,-0.0375,-0.0412,-0.0389,-0.039,-0.0391,-0.0391,-0.0388,-0.0388,-0.0388,-0.0388,0,0.0064,0.007,0.0058,0.0045,0.0023,-0.0007,-0.0044,-0.0057,-0.0106,-0.0129,-0.0166,-0.0202,-0.0231,-0.0279,-0.029,-0.0319,-0.038,-0.0368,-0.0371,-0.0405,-0.0384,-0.0387,-0.0388,-0.0385,-0.0386,-0.0386,-0.0386,0,0.0041,0.0029,0.0028,0.001,-0.0009,-0.0035,-0.005,-0.008,-0.0105,-0.0146,-0.0151,-0.0191,-0.0218,-0.0253,-0.0271,-0.0291,-0.031,-0.0328,-0.0333,-0.0336,-0.0334,-0.03,-0.0273,0,0,0,0,0,0.0014,0.0003,-0.0012,-0.0027,-0.0039,-0.0049,-0.0078,-0.009,-0.0106,-0.0128,-0.0138,-0.0166,-0.0205,-0.0228,-0.0243,-0.0269,-0.0317,-0.0288,-0.0341,-0.0372,-0.0375,-0.0383,0,0,0,0,0,0,-0.0007,-0.0019,-0.0019,-0.0046,-0.0057,-0.0079,-0.0092,-0.0105,-0.0116,-0.0128,-0.0145,-0.0162,-0.0197,-0.0184,-0.0237,-0.0247,-0.0282,-0.0308,-0.0308,-0.0371,-0.0373,-0.0375,-0.0384,0,0,0,0,0]}]]